This demonstration page uses our WeatherBlox Daily Observations layout. Learn more.

Left ArrowRight Arrow

31.84235, -102.49876

Hourly Observations for March 25, 2017

Temp ( °F °C ) Dew Point ( °F °C ) Humidity (%) Winds ( mph kmh ) Pressure ( in mb ) Visibility ( mi km ) Precip ( " mm )
12:53 am 00:53 Clear 54 12.2 30 -1.1 40 40 N 10 17 30.05 1018 10 16 0.00 0.00
1:53 am 01:53 Clear 52 11.1 31 -0.6 45 45 N 9 15 30.05 1018 10 16 0.00 0.00
2:53 am 02:53 Clear 49 9.4 31 -0.6 50 50 NNW 6 9 30.05 1018 10 16 0.00 0.00
3:53 am 03:53 Clear 46 7.8 31 -0.6 56 56 NW 7 11 30.05 1018 10 16 0.00 0.00
4:53 am 04:53 Clear 47 8.3 31 -0.6 54 54 NNW 10 17 30.04 1017 10 16 0.00 0.00
5:53 am 05:53 Clear 45 7.2 32 0 61 61 WNW 9 15 30.06 1018 10 16 0.00 0.00
6:53 am 06:53 Clear 44 6.7 31 -0.6 60 60 NW 8 13 30.09 1019 10 16 0.00 0.00
7:53 am 07:53 undefined 44 6.7 31 -0.6 60 60 undefined N/A 30.09 1019 N/A 0.00 0.00
8:53 am 08:53 undefined N/A N/A N/A undefined N/A N/A N/A 0.00 0.00
9:53 am 09:53 Sunny 55 12.8 30 -1.1 38 38 N 12 19 30.10 1019 10 16 0.00 0.00
10:17 am 10:17 Mostly Sunny 58 14.4 29 -1.7 33 33 NNE 12 19 30.12 1020 10 16 0.00 0.00
10:53 am 10:53 Sunny 60 15.6 28 -2.2 30 30 NNE 12 19 30.08 1019 10 16 0.00 0.00
11:53 am 11:53 Sunny 64 17.8 30 -1.1 28 28 NE 8 13 30.07 1018 10 16 0.00 0.00
12:33 pm 12:33 Mostly Sunny 65 18.3 30 -1.1 27 27 VRB 7 11 30.00 1016 10 16 0.00 0.00
12:53 pm 12:53 Mostly Sunny 66 18.9 30 -1.1 26 26 VRB 3 6 30.04 1017 10 16 0.00 0.00
1:53 pm 13:53 Sunny 68 20 28 -2.2 22 22 VRB 5 7 30.01 1016 10 16 0.00 0.00
2:53 pm 14:53 Sunny 71 21.7 27 -2.8 19 19 SSW 10 17 29.97 1015 10 16 0.00 0.00
3:53 pm 15:53 Sunny 74 23.3 26 -3.3 17 17 S 5 7 29.91 1013 10 16 0.00 0.00
4:34 pm 16:34 Mostly Sunny 75 23.9 26 -3.3 16 16 SSW 9 15 29.83 1010 10 16 0.00 0.00
4:53 pm 16:53 Mostly Sunny 76 24.4 26 -3.3 16 16 SSW 15 24 29.87 1012 10 16 0.00 0.00
5:53 pm 17:53 Sunny 76 24.4 26 -3.3 16 16 S 8 13 29.84 1010 10 16 0.00 0.00
6:53 pm 18:53 Sunny 76 24.4 25 -3.9 15 15 S 8 13 29.82 1010 10 16 0.00 0.00
7:53 pm 19:53 Sunny 73 22.8 25 -3.9 17 17 SSE 8 13 29.81 1010 10 16 0.00 0.00
8:53 pm 20:53 Clear 68 20 25 -3.9 20 20 SE 8 13 29.77 1008 10 16 0.00 0.00
9:53 pm 21:53 Clear 70 21.1 27 -2.8 20 20 SSE 10 17 29.80 1009 10 16 0.00 0.00
10:53 pm 22:53 Clear 66 18.9 27 -2.8 23 23 SSE 12 19 29.79 1009 10 16 0.00 0.00
11:53 pm 23:53 Clear 64 17.8 26 -3.3 24 24 SSE 12 19 29.76 1008 10 16 0.00 0.00

Powered by AerisWeather